Location: Blanot
(47.1713°N, 4.2340°E)
Time: 21:02:25
(UTC+00:00)

Cosmos 1140 Rocket - Pass Details

Date: 14 July 2020
Orbit: 744 x 768 km, 74.1° (Epoch: 14 August)

Event Time Altitude Azimuth Distance (km) Brightness Sun altitude
Exits shadow 02:32:13 15° 236° (WSW) 1,950 5.0 -12.0°
Maximum altitude 02:36:05 39° 300° (WNW) 1,132 4.3 -11.6°
Drops below altitude 10° 02:41:01 10° 10° (N) 2,314 7.0 -11.1°
Sets 02:43:33 0° 18° (NNE) 3,246 8.1 -10.8°
